Weather History for KFEP - April, 2013

Change the Weather History Date:

Wednesday, April 10, 2013

  Actual Average Record
Temperature  
Mean Temperature 38 °F -  
Max Temperature 41 °F 53 °F 80 °F (2005)
Min Temperature 34 °F 32 °F 21 °F (1989)
Degree Days  
Heating Degree Days 28    
Moisture  
Dew Point 37 °F    
Average Humidity 92    
Maximum Humidity 93    
Minimum Humidity 87    
Precipitation  
Precipitation 0.98 in - - ()
Sea Level Pressure  
Sea Level Pressure 29.92 in    
Wind  
Wind Speed 17 mph (NNE)    
Max Wind Speed 26 mph    
Max Gust Speed 33 mph    
Visibility 8 miles    
Events Rain , Thunderstorm    
Averages and records for this station are not official NWS values.
T = Trace of Precipitation, MM = Missing Value Source: NWS Daily Summary

Daily Weather History Graph

Daily Weather History Graph

Search for Another Location

Airport or City:

Trip Planner

Search our weather history database for the weather conditions in past years. The results will help you decide how hot, cold, wet, or windy it might be!

Date:

Astronomy

Apr. 10, 2013 Rise Set
Actual Time 6:25 AM CDT 7:34 PM CDT
Civil Twilight 5:56 AM CDT 8:03 PM CDT
Nautical Twilight 5:22 AM CDT 8:37 PM CDT
Astronomical Twilight 4:45 AM CDT 9:14 PM CDT
Moon 6:20 AM CDT (4/10) 8:11 PM CDT (4/10)
Length of Visible Light 14h 06m
Length of Day
13h 09m
New Moon, 0% of the Moon is Illuminated
Apr 10
New Moon
Apr 18
First Quarter
Apr 25
Full
May 2
Last Quarter
May 9
New

Hourly Weather History & Observations

Time (CDT) Temp. Windchill Dew Point Humidity Pressure Visibility Wind Dir Wind Speed Gust Speed Precip Events Conditions
12:15 AM 40.1 °F 30.7 °F 37.9 °F 92% 29.94 in 7.0 mi NE 19.6 mph - N/A   Overcast
12:35 AM 40.1 °F 31.3 °F 37.9 °F 92% 29.93 in 7.0 mi NE 17.3 mph - N/A   Overcast
12:55 AM 40.3 °F 32.2 °F 38.3 °F 93% 29.94 in 7.0 mi NE 15.0 mph 19.6 mph N/A Thunderstorm Thunderstorm
1:15 AM 40.3 °F 30.4 °F 38.3 °F 93% 29.91 in 5.0 mi NE 21.9 mph 27.6 mph 0.01 in Rain , Thunderstorm Light Thunderstorms and Rain
1:35 AM 40.1 °F 31.3 °F 37.8 °F 91% 29.92 in 10.0 mi NE 17.3 mph - 0.01 in   Overcast
1:55 AM 41.0 °F 34.3 °F 39.2 °F 93% 29.94 in 10.0 mi NNE 11.5 mph - N/A   Overcast
2:15 AM 40.1 °F 31.3 °F 37.8 °F 91% 29.93 in 10.0 mi NNE 17.3 mph 23.0 mph N/A   Overcast
2:35 AM 39.9 °F 31.8 °F 37.8 °F 92% 29.94 in 7.0 mi NNE 15.0 mph 19.6 mph N/A Rain Light Rain
2:55 AM 39.0 °F 29.0 °F 36.9 °F 92% 29.93 in 10.0 mi NNE 20.7 mph - N/A Thunderstorm Overcast
3:15 AM 38.7 °F 29.1 °F 36.5 °F 92% 29.89 in 10.0 mi NE 18.4 mph 24.2 mph N/A Rain Light Rain
3:35 AM 38.7 °F 29.1 °F 36.7 °F 93% 29.90 in 10.0 mi NNE 18.4 mph 21.9 mph N/A   Overcast
3:55 AM 38.7 °F 29.1 °F 36.5 °F 92% 29.91 in 10.0 mi NE 18.4 mph - 0.01 in Thunderstorm Overcast
4:15 AM 38.7 °F 30.5 °F 36.5 °F 92% 29.91 in 10.0 mi NNE 13.8 mph 24.2 mph N/A Thunderstorm Overcast
4:35 AM 38.7 °F 28.8 °F 36.5 °F 92% 30.02 in 7.0 mi NNW 19.6 mph 29.9 mph N/A Rain Light Rain
4:55 AM 36.1 °F 25.9 °F 34.0 °F 92% 30.04 in 2.5 mi NW 18.4 mph 27.6 mph 0.05 in Rain , Thunderstorm Rain
5:15 AM 36.1 °F 25.2 °F 34.0 °F 92% 29.98 in 5.0 mi North 20.7 mph 28.8 mph N/A Rain , Thunderstorm Light Thunderstorms and Rain
5:35 AM 35.6 °F 23.7 °F 32.0 °F 87% 29.94 in 2.5 mi NNE 24.2 mph 29.9 mph N/A Rain , Thunderstorm Thunderstorms and Rain
5:55 AM 34.3 °F 22.6 °F 32.4 °F 92% 29.92 in 4.0 mi NE 21.9 mph 33.4 mph 0.14 in Rain , Thunderstorm Light Thunderstorms and Rain
6:15 AM 34.9 °F 23.9 °F 32.9 °F 92% 29.90 in 10.0 mi NE 19.6 mph 25.3 mph N/A Rain , Thunderstorm Rain
6:35 AM 36.1 °F 26.9 °F 34.0 °F 92% 29.98 in 4.0 mi East 15.0 mph 18.4 mph 0.04 in Rain , Thunderstorm Rain
6:55 AM 36.1 °F 29.3 °F 34.2 °F 93% 29.99 in 2.5 mi NE 9.2 mph 16.1 mph 0.13 in Rain , Thunderstorm Thunderstorms and Rain
7:15 AM 36.1 °F 25.2 °F 34.2 °F 93% 29.88 in 4.0 mi NE 20.7 mph - 0.04 in Rain Light Rain
7:35 AM 36.1 °F 24.7 °F 34.2 °F 93% 29.84 in 10.0 mi NE 23.0 mph 29.9 mph 0.05 in   Mostly Cloudy
7:55 AM 36.1 °F 27.7 °F 34.2 °F 93% 29.90 in 10.0 mi NE 12.7 mph - 0.05 in   Overcast
8:15 AM 36.3 °F 29.5 °F 34.3 °F 93% 29.90 in 10.0 mi NNE 9.2 mph - N/A   Overcast
8:35 AM 38.7 °F 32.9 °F 36.5 °F 92% 29.94 in 10.0 mi North 8.1 mph - N/A Thunderstorm Overcast
8:55 AM 38.7 °F 31.8 °F 36.5 °F 92% 29.94 in 10.0 mi North 10.4 mph - N/A   Overcast
9:15 AM 38.7 °F 30.9 °F 36.5 °F 92% 29.91 in 10.0 mi NNE 12.7 mph 17.3 mph N/A   Overcast
9:35 AM 39.2 °F 32.0 °F 37.4 °F 93% 29.94 in 10.0 mi NNE 11.5 mph - N/A   Overcast
9:55 AM 38.7 °F - 36.1 °F 91% 30.03 in 10.0 mi Calm Calm - N/A   Overcast
10:15 AM 38.7 °F 35.2 °F 36.3 °F 91% 30.02 in 10.0 mi North 4.6 mph - N/A   Drizzle
10:35 AM 38.7 °F 31.4 °F 36.5 °F 92% 29.99 in 10.0 mi North 11.5 mph - N/A   Overcast
10:55 AM 38.7 °F 27.3 °F 36.5 °F 92% 29.84 in 10.0 mi NNE 26.5 mph 32.2 mph N/A   Overcast
11:15 AM 38.7 °F 29.5 °F 36.5 °F 92% 29.92 in 10.0 mi North 17.3 mph 27.6 mph N/A   Overcast
11:35 AM 38.7 °F 29.1 °F 36.3 °F 91% 29.91 in 10.0 mi NNE 18.4 mph 26.5 mph N/A   Overcast
11:55 AM 39.4 °F 29.8 °F 36.7 °F 90% 29.93 in 10.0 mi NNE 19.6 mph 27.6 mph N/A   Overcast
12:15 PM 40.8 °F 32.3 °F 38.1 °F 90% 29.94 in 10.0 mi NE 17.3 mph - N/A   Overcast
12:35 PM 41.2 °F 33.4 °F 38.3 °F 89% 29.95 in 10.0 mi NNE 15.0 mph 19.6 mph N/A   Overcast
12:55 PM 41.2 °F 34.1 °F 38.3 °F 89% 29.94 in 10.0 mi NNE 12.7 mph - N/A   Overcast
1:15 PM 41.2 °F 36.6 °F 38.3 °F 89% 30.00 in 10.0 mi NE 6.9 mph - N/A   Overcast
1:35 PM 41.2 °F 36.6 °F 38.5 °F 90% 30.02 in 10.0 mi NE 6.9 mph - N/A   Light Drizzle
1:55 PM 41.0 °F 36.4 °F 39.2 °F 93% 30.02 in 7.0 mi ENE 6.9 mph - N/A Rain Rain
2:15 PM 41.2 °F 36.6 °F 39.0 °F 92% 30.01 in 10.0 mi NNE 6.9 mph - 0.01 in Rain Light Rain
2:35 PM 41.2 °F 34.1 °F 39.2 °F 93% 29.98 in 10.0 mi North 12.7 mph - 0.01 in Rain Rain
2:55 PM 41.2 °F 32.4 °F 39.2 °F 93% 29.94 in 4.0 mi North 18.4 mph 24.2 mph 0.05 in Rain Rain
3:15 PM 41.2 °F 33.4 °F 39.2 °F 93% 29.94 in 7.0 mi North 15.0 mph 20.7 mph 0.01 in Rain Light Rain
3:35 PM 41.2 °F 32.7 °F 39.2 °F 93% 29.94 in 7.0 mi North 17.3 mph 21.9 mph 0.03 in Rain Light Rain
3:55 PM 41.2 °F 32.1 °F 39.2 °F 93% 29.91 in 7.0 mi NNE 19.6 mph 25.3 mph 0.04 in Rain Light Rain
4:15 PM 41.2 °F 31.9 °F 39.2 °F 93% 29.91 in 10.0 mi NNE 20.7 mph 25.3 mph N/A Rain Light Rain
4:35 PM 41.2 °F 34.1 °F 39.2 °F 93% 29.92 in 10.0 mi NNE 12.7 mph - 0.02 in Rain Rain
4:55 PM 41.2 °F 32.1 °F 39.2 °F 93% 29.92 in 7.0 mi NE 19.6 mph - 0.02 in Rain Light Rain
5:15 PM 41.2 °F 33.4 °F 39.2 °F 93% 29.93 in 7.0 mi ENE 15.0 mph 23.0 mph N/A Rain Light Rain
5:35 PM 41.0 °F 31.6 °F 39.0 °F 93% 29.89 in 10.0 mi NE 20.7 mph - N/A   Overcast
5:55 PM 40.5 °F 32.5 °F 38.3 °F 92% 29.90 in 7.0 mi NE 15.0 mph 19.6 mph N/A Rain Light Rain
6:15 PM 39.7 °F 30.6 °F 37.4 °F 91% 29.91 in 10.0 mi NE 18.4 mph 24.2 mph N/A   Overcast
6:35 PM 39.2 °F 30.2 °F 37.0 °F 92% 29.88 in 10.0 mi NE 17.3 mph 21.9 mph N/A   Overcast
6:55 PM 38.8 °F 29.4 °F 36.7 °F 92% 29.84 in 10.0 mi NE 18.4 mph 25.3 mph N/A   Overcast
7:15 PM 38.8 °F 28.8 °F 36.7 °F 92% 29.85 in 10.0 mi ENE 20.7 mph - N/A   Overcast
7:35 PM 39.0 °F 29.3 °F 36.9 °F 92% 29.86 in 10.0 mi NE 19.6 mph 26.5 mph N/A   Overcast
7:55 PM 39.0 °F 30.3 °F 36.7 °F 91% 29.88 in 10.0 mi NE 16.1 mph - 0.01 in Rain Light Rain
8:15 PM 38.8 °F 29.4 °F 36.7 °F 92% 29.87 in 10.0 mi NNE 18.4 mph - 0.01 in Rain Light Rain
8:35 PM 39.2 °F 30.5 °F 37.0 °F 92% 29.89 in 4.0 mi NE 16.1 mph 19.6 mph 0.06 in Rain Rain
8:55 PM 38.8 °F 31.6 °F 36.7 °F 92% 29.91 in 5.0 mi NNE 11.5 mph 20.7 mph 0.13 in Rain Rain
9:15 PM 38.7 °F 30.1 °F 36.7 °F 93% 29.90 in 5.0 mi NNE 15.0 mph - 0.04 in Rain Rain
9:35 PM 38.7 °F 30.5 °F 36.7 °F 93% 29.88 in 7.0 mi NNE 13.8 mph - 0.08 in Rain Rain
9:55 PM 38.7 °F 28.8 °F 36.7 °F 93% 29.86 in 5.0 mi NE 19.6 mph 25.3 mph 0.11 in Rain Light Rain
10:15 PM 38.7 °F 28.8 °F 36.7 °F 93% 29.89 in 4.0 mi NE 19.6 mph 28.8 mph 0.06 in Rain Light Rain
10:35 PM 38.7 °F 28.8 °F 36.7 °F 93% 29.87 in 5.0 mi NNE 19.6 mph 25.3 mph 0.11 in Rain Rain
10:55 PM 38.7 °F 28.8 °F 36.7 °F 93% 29.85 in 5.0 mi NNE 19.6 mph 24.2 mph 0.16 in Rain Light Rain
11:15 PM 38.7 °F 29.8 °F 36.7 °F 93% 29.86 in 5.0 mi NE 16.1 mph - 0.03 in Rain Light Rain
11:35 PM 38.7 °F 29.8 °F 36.7 °F 93% 29.86 in 7.0 mi NE 16.1 mph - 0.05 in Rain Light Rain
11:55 PM 38.7 °F 28.8 °F 36.7 °F 93% 29.86 in 5.0 mi NE 19.6 mph - 0.07 in Rain Light Rain